This is the latest recevied weather packets stored in our database for station/object KE4EST. If no packets are shown the sender has not sent any weather packets the latest 10 day(s).
| Time | Temp. | Humidity | Pressure | Rain* | Wind** | Luminosity | Snow |
|---|---|---|---|---|---|---|---|
| 1777900599 | 7.78° C | 90% | 1019.1 hPa | 0 mm | - | 32 W/m² | - |
| 1777900296 | 7.22° C | 91% | 1019 hPa | 0 mm | - | 31 W/m² | - |
| 1777899992 | 7.22° C | 93% | 1019.1 hPa | 0 mm | - | 30 W/m² | - |
| 1777899689 | 6.67° C | 95% | 1019.1 hPa | 0 mm | - | 28 W/m² | - |
| 1777899387 | 6.11° C | 97% | 1019 hPa | 0 mm | - | 26 W/m² | - |
| 1777899084 | 6.11° C | 98% | 1019 hPa | 0 mm | - | 29 W/m² | - |
| 1777898781 | 5.56° C | 99% | 1019.1 hPa | 0 mm | - | 31 W/m² | - |
| 1777898479 | 5.56° C | 99% | 1018.8 hPa | 0 mm | - | 29 W/m² | - |
| 1777898176 | 5.56° C | 99% | 1018.7 hPa | 0 mm | - | 29 W/m² | - |
| 1777897873 | 5° C | 99% | 1018.8 hPa | 0 mm | - | 25 W/m² | - |
| 1777897570 | 5° C | 99% | 1018.8 hPa | 0 mm | - | 25 W/m² | - |
| 1777897265 | 4.44° C | 99% | 1018.8 hPa | 0 mm | - | 24 W/m² | - |
| 1777896961 | 4.44° C | 99% | 1018.8 hPa | 0 mm | - | 22 W/m² | - |
| 1777896658 | 4.44° C | 99% | 1018.6 hPa | 0 mm | - | 22 W/m² | - |
| 1777896355 | 3.89° C | 99% | 1018.7 hPa | 0 mm | - | 20 W/m² | - |
| 1777896053 | 3.89° C | 99% | 1018.6 hPa | 0 mm | - | 18 W/m² | - |
| 1777895751 | 3.33° C | 99% | 1018.5 hPa | 0 mm | - | 18 W/m² | - |
| 1777895448 | 3.33° C | 99% | 1018.5 hPa | 0 mm | - | 17 W/m² | - |
| 1777895146 | 3.33° C | 99% | 1018.4 hPa | 0 mm | - | 16 W/m² | - |
| 1777894843 | 2.78° C | 99% | 1018.6 hPa | 0 mm | - | 15 W/m² | - |
| 1777894539 | 2.78° C | 99% | 1018.4 hPa | 0 mm | - | 14 W/m² | - |
| 1777894237 | 2.78° C | 99% | 1018.4 hPa | 0 mm | - | 13 W/m² | - |
| 1777893933 | 2.78° C | 99% | 1018.4 hPa | 0 mm | - | 12 W/m² | - |
| 1777893630 | 2.78° C | 99% | 1018.4 hPa | 0 mm | - | 11 W/m² | - |
| 1777893326 | 2.78° C | 99% | 1018.3 hPa | 0 mm | - | 9 W/m² | - |
* Rain latest hour (hover to see other rain measurements)
** Current wind speed in m/s (hover to see current wind gust speed)